This demonstration page uses our WeatherBlox Daily Observations layout. Learn more.

Left ArrowRight Arrow

36.17497, -115.13722

Hourly Observations for April 13, 2020

Temp ( °F °C ) Dew Point ( °F °C ) Humidity (%) Winds ( mph kmh ) Pressure ( in mb ) Visibility ( mi km ) Precip ( " mm )
12:53 am 00:53 Clear 59 15 45 7.2 60 60 NE 3 6 29.89 1012 10 16 N/A
1:53 am 01:53 Clear 57 13.9 46 7.8 67 67 N N/A 29.90 1012 10 16 N/A
2:53 am 02:53 Clear 56 13.3 45 7.2 67 67 N 7 11 29.90 1013 10 16 N/A
3:53 am 03:53 Clear 56 13.3 48 8.9 75 75 N N/A 29.93 1014 10 16 N/A
4:53 am 04:53 Clear 59 15 43 6.1 56 56 NE 9 15 29.94 1014 10 16 N/A
5:53 am 05:53 Clear 59 15 41 5 51 51 N 10 17 29.97 1015 10 16 N/A
6:53 am 06:53 Sunny 58 14.4 19 -7.2 22 22 NNW 9 15 29.99 1016 10 16 N/A
7:53 am 07:53 Sunny 60 15.6 19 -7.2 20 20 NNW 10 17 30.01 1016 10 16 N/A
8:53 am 08:53 Sunny 65 18.3 16 -8.9 15 15 N 8 13 30.01 1016 10 16 N/A
9:53 am 09:53 Sunny 67 19.4 13 -10.6 12 12 N 5 7 30.01 1016 10 16 N/A
10:53 am 10:53 Sunny 70 21.1 12 -11.1 10 10 VRB 3 6 30.01 1016 10 16 N/A
11:53 am 11:53 Sunny 72 22.2 12 -11.1 10 10 NW 14 22 30.00 1016 10 16 N/A
12:53 pm 12:53 Sunny 74 23.3 13 -10.6 9 9 NNW 16 26 29.98 1015 10 16 N/A
1:53 pm 13:53 Sunny 75 23.9 12 -11.1 9 9 NNW 22 35 29.96 1015 10 16 N/A
2:53 pm 14:53 Sunny 76 24.4 14 -10 9 9 N 15 24 29.95 1014 10 16 N/A
3:53 pm 15:53 Sunny 76 24.4 12 -11.1 9 9 NW 21 33 29.93 1014 10 16 N/A
4:53 pm 16:53 Sunny 75 23.9 9 -12.8 8 8 N 23 37 29.93 1014 10 16 N/A
5:53 pm 17:53 Sunny 74 23.3 4 -15.6 6 6 NW 21 33 29.95 1014 10 16 N/A
6:53 pm 18:53 Sunny 72 22.2 7 -13.9 8 8 NW 15 24 29.97 1015 10 16 N/A
7:53 pm 19:53 Clear 70 21.1 10 -12.2 10 10 NW 13 20 30.00 1016 10 16 N/A
8:53 pm 20:53 Clear 66 18.9 14 -10 13 13 ESE 3 6 30.04 1017 10 16 N/A
9:53 pm 21:53 Clear 64 17.8 13 -10.6 13 13 NE 8 13 30.08 1019 10 16 N/A
10:53 pm 22:53 Clear 62 16.7 7 -13.9 11 11 VRB 3 6 30.11 1020 10 16 N/A
11:53 pm 23:53 Clear 62 16.7 10 -12.2 13 13 VRB 3 6 30.14 1021 10 16 N/A

Powered by AerisWeather